Theta_e
310 310 310 310 309 308 308 308 308 308 308 307 306 305 305 304 303 303 304 305 305 305 306 306 307 307 308 309 310 311 312 314 316 318 320 322 323 324 326 327 327 329 330 330 330 329 329 329 329 329 328 328 328 328 328 328 328 328 328 328 328 328 328
310 310 310 310 310 309 308 308 308 308 308 308 307 306 305 304 303 303 303 303 303 304 304 304 305 305 306 308 309 310 311 312 312 313 314 316 318 320 322 323 324 326 327 328 328 328 328 329 329 328 328 327 327 327 328 328 328 328 329 329 329 328 329
310 310 310 310 311 310 309 308 308 308 308 308 307 307 306 305 305 305 305 304 304 304 304 304 304 304 304 305 306 307 309 311 312 313 313 313 313 315 317 319 321 322 323 323 323 323 325 326 327 327 327 327 326 326 327 327 328 329 329 329 329 329 329
310 310 310 310 311 311 310 309 308 308 308 308 308 307 306 306 306 306 306 306 305 305 305 305 304 304 304 304 304 305 306 307 308 311 313 314 313 313 313 315 317 320 321 322 322 322 322 323 324 325 325 325 325 325 326 327 328 329 329 329 329 329 329
310 310 310 311 311 311 311 310 309 308 308 308 308 307 307 306 306 306 306 306 306 305 305 305 305 304 304 304 303 303 304 304 305 305 307 309 310 311 312 312 314 317 321 322 322 323 323 323 323 324 323 323 324 324 324 325 326 328 329 329 329 329 329
311 310 310 311 311 311 311 310 309 309 308 308 308 307 307 306 306 306 306 306 305 305 305 305 305 304 304 304 304 303 303 302 303 303 303 304 304 307 309 311 311 313 317 319 321 322 322 323 323 323 323 324 325 325 325 324 325 326 328 328 328 328 328
311 311 310 311 312 312 312 311 310 309 309 308 307 307 307 306 306 306 306 305 305 305 305 305 305 305 305 305 305 304 303 302 302 302 302 302 302 303 304 306 308 310 312 315 317 318 319 320 321 322 323 323 324 325 325 325 324 324 326 326 327 327 327
312 312 311 311 312 312 312 312 310 310 309 308 308 307 307 307 306 306 305 305 305 305 305 305 305 305 305 305 305 305 304 303 302 301 301 301 301 301 301 302 304 307 309 312 313 314 316 317 319 320 321 322 323 323 323 324 325 325 325 325 325 324 324
313 313 312 311 312 312 312 312 311 310 309 309 308 307 307 306 306 306 306 305 305 304 305 305 305 305 305 305 304 304 304 304 303 302 301 301 301 300 300 300 300 303 305 308 310 311 313 314 316 317 319 320 322 322 322 322 322 323 324 325 324 323 321
314 313 312 311 312 311 312 312 311 310 310 309 308 308 307 306 306 306 306 305 304 304 304 305 305 305 305 305 304 304 304 304 303 303 302 302 301 301 301 300 300 300 302 304 306 309 310 312 313 314 316 317 319 321 322 322 320 319 320 321 321 321 320
314 313 312 311 312 312 312 312 311 310 310 309 309 308 307 306 306 306 306 305 304 304 304 304 304 304 304 304 304 303 303 303 303 303 302 302 302 302 302 302 301 301 301 302 303 305 307 310 312 313 314 315 316 318 320 322 322 319 318 318 317 318 317
315 314 314 312 312 311 311 311 311 311 310 309 309 308 307 306 306 306 305 304 304 303 304 304 304 304 304 303 304 303 303 303 303 303 303 303 302 302 302 303 303 303 303 302 302 303 304 307 310 312 314 315 316 317 318 319 320 318 317 318 317 316 316
316 316 315 313 312 311 311 312 312 311 310 309 309 309 307 306 305 305 305 304 303 303 303 303 304 303 303 303 303 303 303 303 303 303 303 303 303 303 302 302 303 303 304 304 304 304 303 304 306 309 312 315 316 317 317 318 318 317 314 316 317 317 319
317 317 317 314 312 311 311 311 312 311 310 309 309 309 308 306 305 305 305 304 303 303 303 303 303 303 303 303 302 302 302 302 302 302 303 303 303 303 303 303 302 302 303 304 305 305 305 305 305 305 307 310 313 315 317 317 317 317 315 314 316 318 320
317 318 318 315 313 312 311 311 311 311 310 309 309 310 308 305 305 305 304 303 303 303 302 302 302 302 302 302 301 301 301 301 301 301 302 302 302 302 303 303 303 302 302 303 304 304 305 306 306 306 305 306 308 311 315 316 316 317 316 314 314 317 320
317 318 318 317 315 313 311 311 311 311 310 309 310 310 307 305 305 305 304 303 302 302 302 303 303 302 302 301 301 300 300 300 300 301 301 301 302 302 302 302 302 302 302 302 302 302 303 304 306 307 307 306 306 306 310 313 314 315 316 315 314 316 318
317 318 319 318 316 314 312 311 311 311 310 310 311 309 306 304 304 304 303 303 302 303 303 303 303 303 303 301 300 300 300 300 300 300 300 301 301 300 300 301 301 302 302 302 302 303 303 304 306 307 308 308 307 305 306 310 312 314 315 316 315 316 317
319 319 319 318 317 315 313 312 312 311 310 311 311 308 305 304 304 304 303 302 303 303 304 304 304 304 303 301 300 299 299 299 299 299 299 300 300 300 299 299 300 301 302 302 302 303 303 304 305 307 307 308 309 308 306 307 309 311 313 315 316 316 317
320 320 319 319 318 316 313 312 312 311 311 311 309 306 305 305 304 303 302 303 303 304 305 305 304 303 302 300 300 299 299 298 298 297 297 298 299 299 299 299 300 300 301 301 302 303 303 303 303 304 306 306 307 308 308 307 307 308 311 313 315 316 316
318 320 320 319 318 316 313 312 312 311 311 309 307 306 305 304 303 303 303 303 304 305 305 304 303 301 300 300 299 299 298 298 297 297 296 296 297 298 298 299 299 299 299 300 300 301 302 302 302 302 303 304 305 305 306 307 307 306 307 310 313 315 316
317 318 319 320 319 315 312 312 312 311 309 308 306 306 305 304 303 303 303 304 304 305 304 302 301 300 300 300 299 299 298 298 298 297 296 295 296 297 298 299 299 298 298 298 298 299 300 300 301 301 301 302 302 303 303 304 305 306 306 307 309 312 314
318 316 318 320 318 314 312 312 311 310 308 307 306 305 304 304 303 303 304 304 304 303 302 301 300 300 300 300 299 299 298 298 298 297 296 295 296 297 298 298 298 298 298 298 298 298 298 299 299 300 301 301 301 301 301 302 303 303 304 305 306 308 311
319 317 319 320 317 313 311 311 310 309 308 306 305 304 303 303 303 303 303 303 303 302 301 300 300 300 300 299 299 298 298 297 297 296 296 295 296 297 298 298 298 298 298 298 298 298 298 298 298 298 299 300 300 300 300 301 301 301 302 303 305 306 308
318 318 320 319 315 312 311 310 309 308 306 305 304 303 303 303 303 303 302 302 301 301 300 300 300 300 299 298 298 297 296 296 296 295 295 295 295 297 298 298 298 299 299 299 298 298 298 298 298 298 298 298 298 298 299 300 300 301 301 301 303 304 305
317 318 319 316 313 312 310 309 308 306 304 303 303 303 303 303 303 303 302 302 301 301 301 300 299 298 297 296 295 295 295 295 295 295 295 295 296 297 298 298 299 299 299 299 299 298 298 298 298 298 298 298 298 297 297 298 299 300 300 301 302 303 304
318 318 316 312 312 311 310 310 308 304 303 303 303 304 304 304 304 303 302 302 301 301 299 298 296 295 295 295 295 296 296 296 296 296 296 297 298 298 299 299 299 299 299 299 298 298 297 298 298 298 299 299 299 298 298 297 297 298 299 300 301 302 303
319 317 314 312 312 311 310 309 306 304 304 304 305 305 305 304 304 303 302 301 300 298 296 294 294 294 294 294 294 295 295 296 296 296 297 297 297 298 298 298 299 298 298 298 297 297 296 296 297 297 298 298 299 299 299 298 297 297 298 299 300 301 302
318 316 314 312 311 311 310 308 305 304 305 306 306 306 305 305 304 303 301 299 297 295 293 293 293 293 293 293 293 294 294 295 295 296 296 296 297 297 297 297 298 298 298 297 296 296 295 295 295 296 296 297 298 299 299 299 298 297 297 298 298 300 301
317 315 313 311 311 311 309 305 304 305 306 306 306 306 305 305 303 301 298 296 295 294 294 293 293 292 292 293 293 293 294 294 295 295 296 296 296 296 296 296 296 296 296 296 296 295 294 294 294 294 295 295 296 297 298 298 298 297 297 297 298 298 299
316 314 312 312 312 310 306 304 305 306 306 306 306 306 304 302 300 298 296 296 296 295 295 293 292 292 292 293 293 293 293 293 294 295 295 296 296 296 296 295 295 295 295 295 295 295 294 294 294 294 294 294 294 295 296 296 297 297 297 297 297 298 298
315 313 312 312 310 307 304 305 306 306 307 307 306 303 300 298 297 297 297 297 297 296 295 293 292 292 292 293 293 292 292 292 293 294 295 295 295 295 295 295 294 294 294 294 294 294 294 293 293 293 293 293 293 294 294 294 295 296 295 295 296 297 297
314 313 312 311 308 305 304 305 306 306 306 305 302 299 298 297 298 298 297 297 297 296 294 293 292 293 293 293 293 292 291 292 293 294 294 294 295 295 295 294 294 294 294 294 294 294 293 293 293 293 293 292 292 293 293 293 293 294 294 294 294 295 296
313 312 311 308 306 304 305 306 307 305 303 301 299 298 298 298 298 298 298 298 297 295 293 292 293 293 293 293 293 292 291 292 293 293 294 294 294 294 294 294 294 294 294 293 293 293 293 293 292 292 292 291 292 292 292 292 293 293 293 293 293 294 295
312 311 308 305 304 305 307 306 304 300 299 298 298 298 298 298 298 298 298 297 295 293 293 293 293 293 293 293 292 291 291 292 292 293 293 293 293 293 293 293 293 293 293 293 292 292 292 292 291 291 291 291 291 292 292 292 292 293 293 293 293 293 294
310 308 306 304 305 305 304 301 299 298 297 298 298 298 298 298 298 297 297 296 294 293 293 293 293 293 293 293 292 291 291 292 292 292 292 292 291 292 292 292 292 292 292 291 291 291 291 291 291 291 291 292 292 292 292 292 292 292 292 293 293 293 294
308 305 305 305 304 302 300 298 298 298 297 298 298 298 298 297 297 296 296 295 293 293 293 293 293 293 293 292 291 291 291 292 292 291 291 291 291 291 291 291 291 291 291 291 290 290 291 291 291 292 292 292 292 292 292 292 292 292 292 293 293 293 294
305 304 304 304 302 299 298 298 298 298 298 298 298 297 297 296 296 295 294 293 292 292 292 293 293 292 292 291 290 291 291 291 291 291 291 290 291 291 291 291 291 291 291 291 291 291 291 291 291 292 293 293 293 292 292 292 292 292 292 292 293 293 293
Wind_Speed
5 5 3 2 3 4 5 6 6 7 8 9 10 10 10 9 9 8 6 5 4 4 4 5 5 5 5 6 6 7 8 9 10 11 10 9 9 10 11 10 12 19 22 20 18 17 15 16 17 16 16 17 19 20 21 22 23 24 25 24 23 23 23
7 7 6 3 2 2 3 4 4 5 6 7 8 9 9 9 9 9 8 7 6 4 2 1 2 3 4 5 6 7 7 8 10 11 11 11 11 10 10 10 10 13 17 18 19 18 16 17 21 21 21 21 21 22 21 21 23 24 25 26 26 25 25
10 9 7 5 4 3 3 2 3 3 4 6 6 7 7 8 7 7 7 6 6 5 4 2 0 1 2 4 5 6 8 9 10 11 12 12 14 13 12 12 11 11 13 13 15 16 16 17 21 24 25 25 26 26 25 23 23 25 25 26 26 26 25
11 10 8 6 6 5 4 4 3 3 3 4 5 5 5 5 5 5 4 4 4 3 2 1 0 2 3 4 6 7 8 10 11 12 13 14 14 15 15 15 14 12 11 11 12 13 14 16 19 22 24 24 25 27 27 26 26 26 25 24 25 26 25
11 10 8 7 7 5 5 6 5 4 3 3 4 4 4 3 3 3 2 3 3 2 1 2 3 3 4 5 7 9 10 12 13 13 14 14 15 16 16 16 16 15 13 12 12 12 13 16 18 21 24 25 26 27 27 26 26 27 26 23 22 23 22
13 11 9 8 8 7 7 8 7 5 4 4 3 3 3 3 2 1 1 2 2 2 2 3 4 5 5 6 6 7 9 12 15 17 16 16 16 16 16 17 18 18 17 16 15 14 14 15 16 18 22 23 24 27 27 26 26 27 28 28 26 25 23
15 14 12 10 9 10 10 9 8 7 6 5 4 4 3 2 1 0 2 3 4 4 4 4 5 6 7 7 8 7 8 9 12 16 18 19 18 18 18 18 19 19 20 20 19 18 17 16 16 17 19 21 22 24 25 26 26 27 28 31 32 31 29
16 15 13 11 11 11 11 11 10 9 8 7 6 5 4 2 1 2 3 4 5 4 4 5 6 7 9 10 11 10 9 8 9 12 16 18 20 20 20 20 20 20 21 21 22 22 20 19 18 17 19 20 22 23 24 25 26 27 27 27 29 31 32
17 17 15 13 12 12 12 12 11 10 9 9 8 7 5 3 3 4 5 5 6 5 5 6 7 9 10 12 12 13 12 11 9 9 12 15 18 20 20 21 21 21 22 22 22 23 23 22 22 21 20 19 20 23 24 25 27 27 26 26 27 28 29
19 18 16 14 13 13 13 13 12 12 11 11 10 9 7 6 6 6 7 8 8 7 7 8 9 11 12 13 13 14 13 12 11 10 10 12 14 17 19 20 22 23 23 23 23 23 24 24 24 24 24 22 20 22 23 27 30 30 29 29 29 27 25
20 19 17 14 14 14 15 15 14 14 13 12 11 11 9 8 8 8 9 10 10 9 9 9 11 12 13 14 15 15 15 14 13 12 12 11 12 14 17 19 21 22 23 24 25 25 24 24 24 24 24 24 23 22 21 25 30 32 31 32 31 30 27
22 21 19 15 15 16 16 16 16 16 15 14 13 12 10 9 9 10 10 11 11 10 9 10 11 13 14 15 16 17 17 16 15 14 13 13 13 13 15 17 19 21 23 24 25 26 26 26 26 25 25 24 24 23 22 23 28 32 32 32 32 31 31
25 24 21 17 17 17 17 18 17 17 16 15 14 13 11 11 11 11 12 13 12 11 9 10 11 14 15 17 18 19 19 19 18 17 16 15 15 15 16 16 18 20 22 23 24 25 26 27 28 29 28 27 26 25 24 24 27 32 34 33 32 32 31
27 26 23 20 18 18 18 18 18 18 17 16 15 14 13 12 12 13 14 14 14 12 10 10 12 15 17 19 20 21 21 21 21 21 20 19 17 17 17 18 19 20 21 23 25 25 26 27 28 30 31 31 30 28 26 26 26 29 33 34 33 32 29
28 29 26 22 20 19 19 19 19 19 18 17 15 14 14 14 13 14 15 15 15 13 11 12 14 17 19 20 21 22 22 23 23 23 23 23 22 20 19 19 20 21 22 23 25 26 27 28 28 29 30 31 33 33 30 28 27 28 32 35 34 31 28
30 30 28 24 22 21 20 19 19 19 18 17 16 15 15 14 14 15 15 15 15 13 12 13 16 18 20 22 23 23 23 23 23 24 24 25 25 24 23 21 20 21 22 24 25 26 28 28 29 29 29 29 31 34 34 31 29 27 30 35 35 33 30
32 32 29 25 23 22 20 19 19 18 18 17 17 16 16 15 15 16 15 14 13 12 13 15 17 20 22 23 24 23 23 23 24 25 25 25 26 26 26 24 22 21 22 23 24 25 26 27 28 29 30 29 28 30 33 34 32 29 28 32 35 34 32
34 33 30 26 23 22 20 19 18 18 18 18 17 17 16 16 16 16 14 13 12 12 14 16 18 21 23 24 24 23 24 24 25 26 26 26 26 26 26 26 24 22 22 22 22 23 24 24 25 27 28 29 28 27 30 32 33 33 31 32 36 36 33
35 34 30 25 23 21 20 19 18 18 18 18 18 17 16 16 16 14 12 11 12 13 15 18 20 22 23 23 23 23 24 25 25 26 26 26 26 26 25 25 24 23 22 22 22 23 23 24 24 24 25 26 26 26 27 28 31 33 34 35 37 38 36
33 34 31 26 23 21 19 18 17 18 18 18 17 17 16 15 14 12 11 11 12 15 17 19 21 22 23 23 24 25 26 26 26 26 26 27 27 27 26 25 24 24 23 23 23 23 24 24 25 25 24 24 25 25 26 26 27 30 33 36 38 39 38
33 33 32 28 24 21 20 18 18 18 18 17 17 16 15 13 12 10 11 12 14 17 19 20 21 21 22 24 26 28 29 29 29 28 28 28 27 27 26 26 26 26 25 25 25 25 25 25 26 27 27 27 27 28 28 28 27 28 30 33 38 40 40
35 34 34 30 25 22 20 19 19 19 18 17 16 15 13 11 11 11 12 14 17 18 19 19 19 21 23 26 28 30 31 32 32 31 31 30 28 27 27 27 27 27 27 26 26 26 27 27 27 29 29 29 30 31 31 31 31 30 30 31 34 38 41
41 37 35 31 26 23 21 20 19 18 17 16 14 12 12 12 12 13 14 16 18 18 18 18 20 22 24 27 30 32 33 33 33 33 33 32 31 30 29 29 29 29 29 28 28 28 28 29 29 30 31 31 30 30 31 32 32 32 32 32 33 35 38
44 37 34 30 27 25 23 22 20 18 16 15 13 13 13 14 14 15 15 16 17 17 17 19 22 25 28 30 32 33 34 35 35 35 34 34 34 33 33 33 32 32 32 31 31 31 30 31 31 32 33 33 33 32 31 31 32 32 32 33 34 33 35
38 34 34 33 31 29 26 23 21 19 18 16 15 15 15 15 15 15 15 15 15 17 19 22 25 27 29 30 31 32 33 35 36 36 36 36 36 36 36 36 36 36 35 35 34 34 33 33 33 33 34 34 35 35 34 34 34 33 33 34 35 36 36
35 35 36 34 33 30 26 23 22 20 18 17 16 16 15 15 15 14 14 14 16 18 20 22 23 23 24 26 27 29 31 32 34 35 35 36 37 37 38 39 40 40 39 38 37 36 36 35 35 35 35 35 36 36 36 36 35 34 33 34 37 39 38
37 39 39 35 32 29 25 22 20 18 17 16 16 16 15 14 14 13 14 15 17 18 18 18 18 19 22 24 26 28 30 31 33 34 35 36 37 38 38 39 41 42 41 41 39 38 37 36 36 37 38 38 37 36 36 37 37 36 35 34 36 39 39
38 40 39 35 31 27 24 22 19 17 16 16 16 15 14 14 13 13 14 15 15 14 14 16 18 21 23 25 27 29 30 32 33 34 35 35 36 37 38 39 41 42 42 42 40 38 36 36 37 39 40 41 40 38 37 36 36 37 37 36 36 37 38
38 39 37 33 29 26 22 20 18 16 17 17 16 15 13 13 13 13 14 13 13 14 16 19 21 22 25 27 30 32 33 34 35 35 36 36 36 37 37 38 40 41 42 42 40 37 36 36 38 40 41 42 42 42 41 38 36 37 38 39 40 39 38
38 38 34 30 28 23 18 16 16 16 17 17 15 14 12 11 11 12 13 13 15 18 21 22 22 24 27 30 33 36 37 38 38 38 38 38 37 38 38 38 39 40 41 40 39 38 36 36 38 40 41 43 44 45 45 42 39 38 38 39 41 42 41
36 35 31 29 26 19 14 14 16 16 16 15 13 12 10 9 10 12 13 15 18 22 24 24 24 26 29 32 36 39 40 41 41 40 40 40 39 39 39 39 39 39 40 41 39 39 38 38 40 41 42 44 45 47 46 43 41 41 38 38 39 40 40
34 34 32 30 24 16 14 16 17 15 14 12 10 9 9 9 10 12 14 16 20 23 25 25 25 28 31 34 38 41 42 43 43 42 41 41 41 41 40 40 39 39 40 41 40 41 41 40 42 43 43 44 46 48 46 42 42 41 39 38 37 37 38
34 35 33 26 19 15 17 18 15 13 11 10 8 8 8 9 11 13 15 18 21 24 25 26 27 29 32 35 38 41 43 44 44 44 43 43 43 43 42 41 41 40 40 40 39 40 41 41 42 43 43 44 47 47 44 42 42 41 39 39 37 36 37
35 35 29 21 18 19 19 17 13 10 8 7 7 7 8 9 11 13 15 19 22 23 25 26 28 30 32 35 39 41 43 44 44 44 45 44 43 43 42 42 42 41 41 41 40 39 39 39 40 42 44 45 46 46 44 43 42 40 40 40 39 38 39
35 31 26 22 21 19 16 12 9 6 4 4 5 6 7 9 12 14 16 20 22 22 23 26 28 30 33 36 39 42 43 43 42 43 44 44 43 42 42 42 42 41 41 41 41 40 40 39 39 41 43 44 44 43 42 42 42 41 41 41 40 40 41
31 28 25 21 18 16 13 10 7 4 2 2 4 6 8 10 12 15 17 19 20 21 22 25 28 30 33 37 40 42 42 42 42 41 41 42 43 43 43 43 42 42 41 41 41 41 40 39 40 41 42 43 42 41 41 42 42 42 43 43 42 43 43
27 24 21 19 17 15 13 9 6 3 1 3 5 7 8 11 13 16 18 19 20 20 22 25 27 30 34 38 40 41 42 42 42 40 40 41 43 43 44 44 43 42 41 40 39 39 38 38 39 40 41 41 41 40 41 42 43 44 44 44 44 45 45
Wind_Direction
208 209 215 156 124 104 98 95 91 88 85 86 88 91 92 92 94 98 108 126 148 179 206 225 235 244 248 252 255 254 255 254 249 249 253 255 257 258 257 265 264 249 245 252 259 258 258 264 262 252 253 264 268 270 270 270 270 269 268 269 270 273 277
212 219 226 215 170 134 120 110 107 103 97 95 95 95 95 95 94 93 93 98 105 117 139 199 246 259 259 260 259 258 259 260 257 257 258 255 257 267 270 270 271 260 254 256 262 264 262 267 271 265 262 267 269 269 272 275 276 272 267 266 267 269 273
214 220 225 223 217 206 191 163 144 128 116 114 111 106 103 100 97 94 91 93 97 100 108 117 114 284 281 278 268 264 263 264 264 264 265 263 259 262 267 268 270 270 270 267 267 271 271 272 274 272 270 271 271 269 266 270 276 277 271 264 264 266 267
216 223 225 220 221 221 218 215 197 173 155 139 132 128 120 111 103 96 90 91 92 85 84 85 354 290 287 282 274 271 266 263 263 262 264 265 264 264 263 262 263 266 273 274 273 275 276 276 279 280 279 276 277 274 267 265 267 271 270 263 261 265 268
220 227 229 222 223 225 230 235 226 205 196 182 159 147 140 134 122 105 96 93 92 83 50 18 6 351 330 313 295 282 273 266 262 260 260 260 262 263 262 260 258 257 256 260 267 273 274 275 279 283 284 283 284 279 274 273 267 260 258 257 260 265 269
225 229 231 226 224 228 236 242 239 229 222 216 195 172 162 160 159 138 85 61 53 42 33 26 15 7 356 346 333 311 290 276 268 263 261 261 261 261 260 259 257 255 253 254 260 266 269 272 277 284 287 289 290 286 282 282 277 266 253 248 255 262 262
226 230 231 227 225 230 238 245 247 243 239 235 222 205 194 184 191 263 10 16 16 11 8 4 357 357 356 353 349 340 320 294 278 269 264 262 262 262 262 260 258 256 255 255 257 261 266 272 277 285 289 289 289 288 285 283 283 279 264 254 258 263 263
226 230 230 228 227 232 240 248 251 250 251 250 243 235 228 224 256 319 351 353 352 354 351 346 345 347 351 352 352 348 339 322 297 279 270 265 262 262 263 262 261 259 257 257 258 260 263 267 272 277 283 290 291 287 283 284 285 284 277 270 268 268 268
225 228 228 227 228 231 240 250 255 258 260 259 259 258 261 273 298 320 330 331 330 331 332 336 339 342 344 346 347 345 341 334 320 299 281 272 267 264 263 262 262 261 259 260 260 261 262 263 266 269 274 285 293 291 288 287 286 282 280 280 279 275 272
227 230 229 227 228 231 238 245 251 256 257 258 262 266 272 286 302 314 318 318 319 318 323 332 337 340 340 339 340 340 337 332 326 317 302 285 274 269 266 264 264 263 262 261 260 261 261 261 262 265 268 272 280 289 293 291 287 284 281 282 283 282 280
230 234 232 229 229 231 236 241 244 248 251 254 259 262 268 281 293 303 308 309 309 309 317 330 336 337 337 334 333 332 330 327 321 314 309 302 290 278 271 267 264 264 264 263 262 261 260 261 260 260 263 265 269 275 283 287 288 285 284 283 282 283 285
235 236 233 228 228 230 234 238 241 244 246 248 251 255 262 273 282 290 295 296 295 298 310 324 331 332 331 328 325 323 321 319 315 310 304 300 296 289 280 272 267 265 265 264 263 263 261 261 260 259 259 259 261 265 269 277 281 280 280 283 283 283 284
238 238 234 230 230 230 232 236 240 241 242 244 245 248 254 262 271 278 282 285 285 286 299 317 324 326 325 323 320 319 316 313 311 308 305 301 296 291 285 279 273 269 267 266 265 264 263 262 260 259 259 258 257 259 263 268 274 275 274 277 282 284 285
239 239 235 234 233 231 232 234 237 238 239 240 243 244 247 252 261 268 273 278 278 279 291 314 322 321 322 321 320 318 315 312 310 308 306 304 300 294 286 281 278 274 271 269 268 268 267 265 263 261 258 259 258 258 261 265 271 276 274 273 278 283 289
239 239 235 235 236 233 232 234 234 235 235 237 239 241 244 249 255 261 267 272 272 275 292 313 319 319 320 320 320 318 315 312 310 308 306 304 302 299 291 283 279 277 275 271 269 268 269 269 269 266 262 259 258 257 259 263 268 274 274 271 274 278 285
238 239 235 234 237 235 233 234 235 234 234 234 236 238 242 247 251 256 262 266 267 277 298 311 315 315 317 318 317 314 311 309 307 306 305 304 303 301 297 290 282 279 278 276 272 269 268 268 268 270 268 265 261 257 257 261 265 270 273 272 272 274 277
238 239 235 234 238 239 236 236 236 235 234 234 235 237 239 242 247 254 260 264 271 287 301 307 309 310 312 314 313 309 307 306 304 303 302 302 302 302 300 297 290 282 277 275 275 273 271 269 267 268 269 269 268 263 257 258 262 265 270 271 270 272 274
239 238 235 233 237 239 238 237 236 234 232 233 236 237 238 240 246 254 260 266 280 294 299 300 302 305 308 309 307 306 306 305 304 303 301 300 300 301 300 300 298 292 286 280 276 274 274 274 271 269 269 270 271 270 263 259 260 261 264 266 266 268 271
240 239 234 232 235 237 236 236 234 231 231 233 236 238 239 242 248 254 259 270 286 292 293 295 298 302 303 302 303 304 305 305 304 303 301 299 298 297 296 297 297 297 295 291 285 280 279 280 280 277 275 273 272 273 269 263 260 260 260 261 263 265 268
238 240 236 230 232 234 232 233 231 230 232 233 237 241 242 246 249 254 263 275 283 285 288 293 297 299 300 301 305 306 305 305 304 302 301 300 297 295 291 290 289 289 289 289 288 286 283 283 285 284 282 281 278 278 276 270 265 262 261 260 259 261 265
231 236 236 229 227 228 225 226 227 227 230 233 237 241 243 246 250 255 266 274 278 282 287 291 294 297 301 306 308 308 306 305 303 301 300 298 296 293 290 288 287 286 285 283 282 281 280 279 280 280 280 280 280 280 279 277 273 269 265 263 259 258 260
230 229 229 223 219 220 218 217 219 221 226 229 232 236 239 243 249 255 263 270 276 281 286 290 296 300 303 305 305 304 304 303 301 300 298 297 294 291 289 288 287 286 285 283 280 278 275 273 273 273 274 276 277 279 279 278 277 275 272 268 262 258 258
234 225 221 215 210 210 210 209 212 217 221 223 224 228 232 238 244 252 261 269 275 281 288 294 298 299 300 301 301 301 300 299 299 298 297 296 293 290 288 288 287 286 285 284 282 280 276 272 270 270 271 271 273 275 276 277 277 276 276 273 268 263 260
233 223 214 207 205 205 204 204 209 213 214 214 216 221 227 235 243 252 262 271 279 286 293 297 298 298 299 299 300 299 298 298 297 296 296 295 293 291 290 289 288 287 287 286 285 284 281 276 272 270 269 269 268 268 269 272 274 274 275 274 271 267 263
228 221 212 207 207 206 203 205 208 208 206 206 211 218 226 237 247 259 271 280 288 292 296 298 299 301 302 303 303 301 300 298 296 295 295 294 294 294 293 292 292 290 289 289 289 288 287 283 278 273 270 268 267 265 264 264 266 269 271 272 271 268 264
224 219 216 212 208 204 203 207 207 203 201 205 213 221 229 241 255 271 283 289 292 294 297 300 303 308 311 311 311 308 304 302 299 298 296 295 295 295 294 294 294 292 291 291 290 290 289 287 284 280 275 271 267 266 264 262 260 261 264 267 268 265 263
229 221 217 212 207 204 203 204 200 197 201 210 220 227 235 250 266 281 288 291 293 297 302 306 311 316 319 320 318 314 309 305 302 299 298 296 294 293 293 292 291 290 290 289 288 289 288 287 286 283 281 279 274 270 268 265 261 258 257 259 263 263 261
226 217 211 206 204 201 196 192 190 194 206 217 225 233 245 260 275 285 288 290 294 301 308 313 316 319 323 326 326 322 318 312 307 303 300 297 295 292 291 289 288 287 286 285 286 286 286 286 285 284 283 283 282 279 275 272 269 265 259 256 258 261 262
221 209 203 202 199 193 187 184 187 198 210 219 227 238 253 268 279 284 286 291 301 311 317 319 319 321 326 330 330 328 326 321 316 312 308 304 300 296 293 290 287 286 284 284 283 283 283 282 281 282 282 282 283 283 281 278 277 273 266 260 257 256 257
218 203 197 195 189 184 183 185 193 204 214 221 231 246 260 270 276 280 286 297 310 320 323 322 322 323 326 330 331 330 329 326 322 318 315 311 307 302 298 293 290 287 285 284 283 281 280 279 278 278 279 280 281 282 281 282 281 278 274 269 262 257 255
210 196 191 185 178 174 184 197 204 212 220 229 240 252 260 266 272 281 293 303 311 318 321 322 323 322 324 327 328 328 328 326 323 321 318 314 310 306 302 297 292 288 286 284 282 279 276 275 274 274 275 276 278 278 278 281 282 281 279 275 269 265 261
198 188 184 182 178 178 193 203 209 217 226 237 247 252 258 266 276 288 298 304 310 315 319 321 322 322 322 324 324 325 326 324 323 321 318 314 311 307 304 300 295 290 287 285 283 280 277 273 270 270 271 272 273 274 276 278 280 281 282 279 274 270 268
190 185 183 183 181 183 193 201 211 222 230 237 243 249 260 271 282 293 300 304 310 315 318 320 322 322 322 321 321 322 324 324 323 321 318 315 312 309 306 303 299 296 292 289 285 282 279 275 272 270 270 268 269 270 273 275 276 278 280 279 275 270 266
187 183 181 178 176 182 194 203 209 212 215 220 233 252 269 282 292 298 302 306 310 316 319 319 320 321 320 319 319 321 323 323 323 321 318 315 313 311 309 306 303 301 298 295 291 287 283 279 275 272 270 268 268 270 272 274 275 275 275 275 274 269 263
183 175 169 169 175 183 191 191 181 173 181 209 243 272 285 293 300 301 303 306 310 316 318 318 318 319 319 317 318 320 322 323 323 320 316 314 312 311 309 307 304 302 300 297 294 291 287 283 279 274 271 270 271 272 273 273 273 271 270 269 269 267 264
173 163 161 169 177 175 164 150 140 134 148 237 271 286 294 299 304 304 304 306 310 314 316 316 316 318 318 317 318 320 322 323 323 320 315 311 310 309 308 306 304 302 300 297 294 291 288 284 280 275 273 272 272 271 271 270 268 267 265 264 262 261 261
161 155 161 172 171 158 141 125 120 134 193 263 273 284 299 304 305 306 306 308 312 316 317 317 317 317 317 318 320 322 323 323 322 319 313 309 308 307 306 304 303 301 299 297 294 290 287 283 279 276 275 273 271 269 267 266 265 263 262 261 259 257 256